Погода Лодейное Поле

Погода Лодейное Поле : погода сейчас, прогноз погоды и архив. Всё, что Вы хотите узнать о погоде Лодейное Поле!

Хотите узнать прогноз погоды Лодейное Поле? Тогда Вам сюда: Погода Лодейное Поле

Поиск расширенной информации на нашем сайте:

Другие новости

Новости СМИ2

Главная страница сайта

Новости сайта

03.07.2017

Напоминаем, что на нашем специализированном сайте Метеоцентр.Азия вы можете получить высокодетализированные автоматические прогнозы погоды по пунктам России, СНГ и мира в авиационном формате (включающие направление и скорость ветра, видимость, явления погоды, количество и форму облачности, нижнюю и верхнюю границу облачности).


Погода Лодейное Поле - сегодня

Время (UTC), дата Ветер
(°,м/с) 
Видим.   Явления Облачность Т
(°С)
Тd
(°С)
f(%) Тe
(°С)
Pmin
(гПа)
dP
(гПа)
Po
(мм)
O2
(г/м3)
Тmin Tmax R s Состояние
почвы
12 15.04.18 020 (С) 10 км    ясно 
+16.9 -6.1 20 +18  1020.4  -0.7  763  290           
15 15.04.18 040 (СВ) 10 км    ясно 
+16.3 -4.8 23 +17  1019.4  -1  762  290           
18 15.04.18 060 (СВ) 10 км    ясно 
+7.9 -4.7 40 +9  1019.8  0.4  763  299    +17.4       
21 15.04.18 040 (СВ) 10 км    ясно 
+0.3 -4.3 71 +1  1019.8  0.1  763  307           
00 16.04.18 тихо ()   10 км    ясно 
-2.2 -5.1 80 -2  1019.4  -0.5  762  310           
03 16.04.18 040 (СВ) 10 км    ясно 
-3.5 -5.4 87 -3  1018.7  -0.7  762  312  -3.9         
09 16.04.18 020 (С) 10 км    9/0 средняя, верхняя 
[Ac trans|Ci sp]
+12.4 -3 34 +14  1017.7  -0.3  761  294           
12 16.04.18 020 (С) 10 км    9/0 средняя 
[Ac trans]
+15.2 -4.4 26 +17  1017.2  -0.5  761  291           
15 16.04.18 020 (С) 10 км    8/0 средняя 
[Ac trans]
+15.5 -4.3 25 +17  1016.3  -0.9  760  290           
00 17.04.18 040 (СВ) 10 км    10/0 средняя 
[Ac As]
+3.4 -3 63 +4  1016.8  0.1  760  303           
09 17.04.18 070 (В) 4000 м  ливневой дождь  10/6 300 м кучево-дожд., средняя 
[Cb cap|Ac As]
+5.4 +2.9 84 +6  1016  0.2  760  300           
03 18.04.18 040 (СВ) 4000 м  слаб. ливневой дождь  10/10 400 м кучево-дожд. 
[Cb cap]
+4 +1.8 86 +4  1011.9  757  300  +4       
15 18.04.18 030 (СВ) 10 км    ясно 
+14.8 -4.1 27 +15  1014.7  0.6  759  291      0.0     
18 18.04.18 360 (С) 10 км    ясно 
+6 -3.1 52 +7  1015.3  0.5  759  300    +16       
21 18.04.18 тихо ()   10 км    ясно 
-1.2 -4.2 80 -1  1015.6  0.2  759  308           
00 19.04.18 тихо ()   10 км    ясно 
-3.1 -4.5 90 -3  1015.1  -0.5  759  310           
03 19.04.18 тихо ()   10 км    ясно 
-3.5 -4.4 93 -4  1014.7  -0.4  759  310  -3.9         
06 19.04.18 тихо ()   10 км    ясно 
+8.3 -1.4 50 +8  1015  0.5  759  297  -3.9         
09 19.04.18 010 (С) 10 км    4/4 600 м 
[Cu hum]
+16.2 -0.9 31 +17  1015.2  0.2  759  289           
12 19.04.18 010 (С) 10 км    6/6 600 м 
[Cu med, cong]
+16.4 -1.1 30 +17  1015.5  0.3  760  289           
15 19.04.18 340 (С) 10 км    3/3 600 м 
[Sc]
+16 -2.2 29 +16  1016.1  0.6  760  290           
21 19.04.18 040 (СВ) 10 км    9/0 средняя 
[Ac trans]
+4.8 -1.2 65 +6  1018.2  1.3  761  302           
00 20.04.18 040 (СВ) 10 км    6/0 средняя 
[Ac trans]
+4.7 -1.2 66 +4  1019.3  1.1  762  302           
09 20.04.18 070 (В) 10 км    9/0 средняя, верхняя 
[Ac trans|Ci sp]
+6.9 -2.6 51 +7  1018.2  -1.7  761  300           
21 20.04.18 070 (В) 4000 м  дымка{ливн. осадки}  10/6 300 м кучево-дожд., средняя 
[Cb cap|Ac As]
+4.6 +4.3 98 +5  1004.1  -3.7  751  297           
Время (UTC), дата Ветер
(°,м/с) 
Видим.   Явления Облачность Т
(°С)
Тd
(°С)
f(%) Тe
(°С)
Pmin
(гПа)
dP
(гПа)
Po
(мм)
O2
(г/м3)
Тmin Tmax R s Состояние
почвы

Для получения пояснительной информации подведите курсор к названию столбца.

ПОГОДА Лодейное Поле - архив

Всё, что Вы хотите узнать о погоде Лодейное Поле - удобно и подробно!

Выберите нужную дату (начиная с 1 января 2015* года) и нажмите кнопку "Найти".
Будут отображены архивные сводки погоды по пункту Лодейное Поле, начиная с указанной даты.


Отображать данные в формате CSV (для использования в таблицах Excel)


Внимание! Наш архив погоды предназначен исключительно для личного некоммерческого использования в познавательных целях. Если Вам необходимы официальные справки о состоянии погоды (для производственных, юридических, коммерческих и т.п. целей), обращайтесь в органы Росгидромета.

*Примечание: данная дата относится к архиву по метеостанциям СССР (Россия, СНГ, Балтия).
Архив по метеостанциям Зарубежной Европы и Азии (кроме Китая) хранится 10 дней, по другим регионам земного шара (Китай, Африка, Америка, Австралия, Океания) - 1 день.

Лодейное Поле - район местоположения метеостанции


Название, широта, долгота, высота метеостанции:
Лодейное Поле 60.7°ш. 33.6°д. 23 м над ур. моря [Российская Федерация]

Дополнительная информация

В oтличие oт бoльшинства пoгoдных сайтoв мы публикуем пoдрoбную метеoинфoрмацию в детальнoм прoфессиoнальнoм фoрмате.

Характеристики температуры и влажнoсти вoздуха измеряются на высoте 2 м в тени вдали oт зданий и деревьев.
Скoрoсть ветра измеряется на высoте 10 м (на урoвне рoста челoвека скoрoсть ветра ниже в 1.5-2 раза). Если метеoстанция нахoдится в гoрoде или в лесу, тo скoрoсть ветра занижена на 2-4 м/с пo сравнению с oткрытым местoм. Скoрoсть ветра над акватoриями крупных рек и oзёр, а также на вершинах хoлмoв на 2-5 м/с выше, чем в oбычных услoвиях.
Атмoсфернoе давление в разных тoчках местнoсти мoжет значительнo oтличаться oт давления на метеoстанции, в зависимoсти oт услoвий рельефа (при пoдъёме на 10 м давление пoнижается примернo на 1 мм рт.ст.).